Zurück zum Katalog

GLOBALSTAR M050

AktivKommunikationLEO
NORAD 25908·PAYLOAD·🇺🇸 United States

Gestartet Sep 22, 1999 von Baikonur Cosmodrome

Loading…

Nächste Überflüge (nächste 24 Stunden)

TLE

AktuellSource: Space-Track

Epoche: Sep 14, 2026, 14:52 UTC

1 25908U 99049B   26257.62009216 -.00000137  00000-0 -54856-3 0  9997
2 25908  52.0001 309.4261 0008994 215.4423 311.4083 12.07466367203085

Verfolge GLOBALSTAR M050 in Echtzeit mit AllMySat

Download on the App Store